User: anonymous   Login
Location: Sun City Center
(27.6996°N, 82.3528°W)
Time: 17:15:12
(UTC-05:00)
Language:

Cosmos 2084 Rocket - Orbit

View from above orbital plane
View from above orbital plane
View from above satellite
View from above satellite

Ground track
Ground track

The orbit data is extracted from the following two-line orbital elements,

1 20666U 90055D   16336.82302763  .00000157  00000-0  30918-4 0  9997
2 20666  62.7841  86.1000 0136667  89.8010 271.8743 14.91786191431737
Epoch (UTC): 01 December 2016 19:45:09
Eccentricity: 0.0136667
inclination: 62.7841°
perigee height: 497 km
apogee height: 687 km
right ascension of ascending node: 86.1000°
argument of perigee: 89.8010°
revolutions per day: 14.91786191
mean anomaly at epoch: 271.8743°
orbit number at epoch: 43173

The dashed part of the orbit path shows where the satellite is in the earth's shadow,  

DLR